Change the Weather History Date:

Tuesday, August 21, 2012

  Actual Average Record
Temperature  
Mean Temperature 83 °F 82 °F  
Max Temperature 93 °F 90 °F 97 °F (1993)
Min Temperature 72 °F 74 °F 69 °F (1975)
Degree Days  
Heating Degree Days 0 0  
Month to date heating degree days 0 0  
Since 1 June heating degree days 0 0  
Since 1 July heating degree days 0 0  
Cooling Degree Days 18 17  
Month to date cooling degree days 368 357  
Year to date cooling degree days 2372 2137  
Since 1 June cooling degree days 1333 1331  
Growing Degree Days 32 (Base 50)    
Moisture  
Dew Point 72 °F    
Average Humidity 73    
Maximum Humidity 94    
Minimum Humidity 52    
Precipitation  
Precipitation 0.26 in 0.22 in 3.73 in (1991)
Month to date precipitation 1.99 4.62  
Year to date precipitation 22.72 32.29  
Sea Level Pressure  
Sea Level Pressure 30.05 in    
Wind  
Wind Speed 7 mph (South)    
Max Wind Speed 29 mph    
Max Gust Speed 36 mph    
Visibility 9 miles    
Events Rain , Thunderstorm    
T = Trace of Precipitation, MM = Missing Value Source: NWS Daily Summary

Daily Weather History Graph

Daily Weather History Graph

Search for Another Location

Airport or City:

Trip Planner

Search our weather history database for the weather conditions in past years. The results will help you decide how hot, cold, wet, or windy it might be!

Date:

Astronomy

Aug. 21, 2012 Rise Set
Actual Time 6:55 AM EDT 7:53 PM EDT
Civil Twilight 6:31 AM EDT 8:17 PM EDT
Nautical Twilight 6:02 AM EDT 8:46 PM EDT
Astronomical Twilight 5:33 AM EDT 9:15 PM EDT
Moon 10:53 AM EDT (8/21) 10:25 PM EDT (8/21)
Length of Visible Light 13h 46m
Length of Day
12h 57m
Waxing Crescent, 19% of the Moon is Illuminated
Aug 21
Waxing Crescent
Aug 24
First Quarter
Aug 31
Full
Sep 8
Last Quarter
Sep 15
New

Hourly Weather History & Observations

Time (EDT) Temp. Heat Index Dew Point Humidity Pressure Visibility Wind Dir Wind Speed Gust Speed Precip Events Conditions
12:53 AM 75.9 °F - 73.0 °F 91% 30.03 in 10.0 mi SSW 4.6 mph - N/A Thunderstorm Clear
1:53 AM 75.9 °F - 73.0 °F 91% 30.03 in 10.0 mi South 3.5 mph - N/A Thunderstorm Clear
2:53 AM 75.0 °F - 72.0 °F 90% 30.01 in 10.0 mi Calm Calm - N/A   Clear
3:53 AM 75.0 °F - 72.0 °F 90% 29.99 in 10.0 mi SSW 3.5 mph - N/A   Clear
4:53 AM 73.9 °F - 71.1 °F 91% 29.99 in 10.0 mi Calm Calm - N/A   Clear
5:53 AM 73.9 °F - 71.1 °F 91% 30.01 in 10.0 mi SW 3.5 mph - N/A   Clear
6:53 AM 73.9 °F - 72.0 °F 93% 30.05 in 10.0 mi South 3.5 mph - N/A   Clear
7:53 AM 75.0 °F - 73.0 °F 94% 30.06 in 10.0 mi Calm Calm - N/A   Clear
8:53 AM 81.0 °F 87.3 °F 75.9 °F 85% 30.04 in 10.0 mi SSW 4.6 mph - N/A   Clear
9:53 AM 86.0 °F 96.0 °F 75.9 °F 72% 30.05 in 10.0 mi SSW 10.4 mph - N/A   Partly Cloudy
10:53 AM 88.0 °F 98.5 °F 75.9 °F 67% 30.04 in 10.0 mi South 9.2 mph - N/A   Partly Cloudy
11:53 AM 90.0 °F 99.0 °F 73.9 °F 59% 30.03 in 10.0 mi South 13.8 mph - N/A   Scattered Clouds
12:53 PM 91.9 °F 98.4 °F 71.1 °F 50% 30.00 in 10.0 mi South 12.7 mph - N/A   Partly Cloudy
1:53 PM 91.0 °F 100.4 °F 73.9 °F 57% 30.00 in 10.0 mi SE 17.3 mph - N/A   Scattered Clouds
2:53 PM 91.9 °F 103.2 °F 75.0 °F 58% 29.99 in 10.0 mi ESE 11.5 mph - N/A   Scattered Clouds
3:53 PM 90.0 °F 97.9 °F 73.0 °F 57% 29.99 in 10.0 mi SE 11.5 mph - N/A   Partly Cloudy
4:21 PM 91.4 °F 100.1 °F 73.4 °F 55% 30.00 in 10.0 mi SE 6.9 mph - N/A Thunderstorm Partly Cloudy
4:53 PM 90.0 °F 99.0 °F 73.9 °F 59% 30.00 in 10.0 mi ESE 12.7 mph - N/A Thunderstorm Scattered Clouds
5:30 PM 78.8 °F - 69.8 °F 74% 30.05 in 10.0 mi ESE 19.6 mph 31.1 mph 0.00 in Rain , Thunderstorm Thunderstorms and Rain
5:53 PM 77.0 °F - 70.0 °F 79% 30.08 in 2.0 mi South 12.7 mph 19.6 mph 0.00 in Rain , Thunderstorm Thunderstorms and Rain
6:53 PM 73.9 °F - 70.0 °F 87% 30.09 in 2.0 mi SW 6.9 mph - 0.16 in Rain , Thunderstorm Thunderstorms and Rain
7:00 PM 73.4 °F - 71.6 °F 94% 30.10 in 8.0 mi NW 11.5 mph - 0.01 in Rain , Thunderstorm Thunderstorms and Rain
7:29 PM 73.4 °F - 71.6 °F 94% 30.11 in 9.0 mi NNW 8.1 mph - 0.04 in Rain , Thunderstorm Thunderstorms and Rain
7:40 PM 73.4 °F - 71.6 °F 94% 30.12 in 8.0 mi North 5.8 mph - 0.05 in Rain , Thunderstorm Thunderstorms and Rain
7:53 PM 73.0 °F - 71.1 °F 93% 30.11 in 8.0 mi North 9.2 mph - 0.07 in Rain , Thunderstorm Thunderstorms and Rain
8:53 PM 73.0 °F - 70.0 °F 90% 30.10 in 10.0 mi North 4.6 mph - 0.01 in Rain , Thunderstorm Thunderstorms and Rain
9:53 PM 72.0 °F - 70.0 °F 93% 30.09 in 10.0 mi NW 8.1 mph - 0.01 in Rain , Thunderstorm Thunderstorms and Rain
10:53 PM 73.0 °F - 71.1 °F 93% 30.10 in 10.0 mi WNW 4.6 mph - 0.00 in Rain , Thunderstorm Thunderstorms and Rain
11:53 PM 73.0 °F - 70.0 °F 90% 30.10 in 10.0 mi Calm Calm - 0.01 in Rain , Thunderstorm Thunderstorms and Rain